User: anonymous   Login
Location: Trois-Rivi�res
(46.3500°N, 72.5500°W)
Time: 23:21:23
(UTC-04:00)
Language:

N. Korean satellite - Orbit

View from above orbital plane
View from above orbital plane
View from above satellite
View from above satellite

Ground track
Ground track

The orbit data is extracted from the following two-line orbital elements,

1 39026U 12072A   18198.56570662 +.00001111 +00000-0 +44011-4 0  9994
2 39026 097.2099 207.8985 0038091 213.1060 146.7795 15.26836809310237
Epoch (UTC): 17 July 2018 13:34:37
Eccentricity: 0.0038091
inclination: 97.2099°
perigee height: 459 km
apogee height: 511 km
right ascension of ascending node: 207.8985°
argument of perigee: 213.1060°
revolutions per day: 15.26836809
mean anomaly at epoch: 146.7795°
orbit number at epoch: 31023

The dashed part of the orbit path shows where the satellite is in the earth's shadow,  

DLR